SCP
0 0 0 0 0 0 0 0 0 0 0 0 0 0 0 0 0 -0 0 0 0 0 0 0 0 0 0 0 0 0 0 0 0 0 0 0 0 0 0 0 0 0 0 0
0 0 0 0 0 0 0 0 0 0 0 0 0 0 0 0 0 0 0 0 0 0 0 0 0 0 0 0 0 0 0 0 0 0 0 0 0 0 0 0 0 0 0 0
0 0 0 0 0 0 0 0 0 0 0 0 0 -0 -0 0 0 0 0 0 0 0 0 0 0 0 0 0 0 0 0 0 0 0 0 0 0 0 0 0 0 0 0 0
0 0 0 0 0 0 0 0 0 0 0 0 0 -0 -0 0 0 0 0 0 0 0 0 0 0 0 0 0 0 0 0 0 0 0 0 0 0 0 0 0 0 0 0 0
0 0 0 0 0 0 0 0 0 0 0 0 0 0 -0 0 0 0 0 0 0 0 0 0 0 0 0 0 0 0 0 0 0 0 0 0 0 0 0 0 0 0 0 0
0 0 0 0 0 0 0 0 0 0 0 0 0 0 0 0 0 0 0 0 0 0 0 0 0 0 0 0 0 0 0 0 0 0 0 0 0 0 0 0 0 0 0 0
0 0 0 0 0 0 0 0 0 0 0 0 0 0 0 0 0 0 0 0 0 0 0 0 0 0 0 0 0 0 0 0 0 0 0 0 0 0 0 0 0 0 0 0
0 0 0 0 0 0 0 0 0 0 0 0 0 0 0 0 0 0 0 0 0 0 0 0 0 0 0 0 0 0 0 0 0 0 0 0 0 0 0 0 0 0 0 0
0 0 0 0 0 0 0 0 0 0 0 0 0 0 0 0 0 0 0 0 0 0 0 0 0 0 0 0 0 0 0 0 0 0 0 0 0 0 0 0 0 0 0 0
0 0 0 0 0 0 0 0 0 0 0 0 0 0 0 0 0 0 0 0 0 0 0 0 0 0 0 0 0 0 0 0 0 0 0 0 0 0 0 0 0 0 0 0
0 0 0 0 0 0 0 0 0 0 0 0 0 0 0 0 0 0 0 0 0 0 0 0 0 0 0 0 -0 -0 0 0 0 0 0 0 0 0 0 0 0 0 0 0
0 0 0 0 0 0 0 0 0 0 0 0 0 0 0 0 0 0 0 0 0 0 0 0 0 0 0 0 -0 -0 0 0 0 0 0 0 0 0 0 0 0 0 0 0
0 0 0 0 0 0 0 0 0 0 0 0 0 0 0 0 0 0 0 0 0 0 0 0 0 0 0 0 -0 -0 0 0 0 0 0 0 0 0 0 0 0 0 0 0
0 0 0 0 0 0 0 0 0 0 0 0 0 0 0 0 0 0 0 0 0 0 0 0 0 0 0 0 0 -0 0 0 0 0 0 0 0 0 0 0 0 0 0 0
0 0 0 0 0 0 0 0 0 0 0 0 0 0 0 0 0 0 0 0 0 0 0 0 0 0 0 0 0 0 0 0 0 0 0 0 0 0 0 0 0 0 0 0
0 0 0 0 0 0 0 0 0 0 0 0 0 0 0 0 0 0 0 0 0 0 0 0 0 0 0 0 0 0 0 0 0 0 0 0 0 0 0 0 0 0 0 0
0 0 0 0 0 0 0 0 0 0 0 0 0 0 0 0 0 0 0 0 0 0 0 0 0 0 0 0 0 0 0 0 0 0 0 0 0 0 0 0 0 0 0 0
0 0 0 0 0 0 0 0 0 0 0 0 0 0 0 0 0 0 0 0 0 0 0 0 0 0 0 0 0 0 0 0 0 0 0 0 0 0 0 0 0 0 0 0
0 0 0 0 0 0 0 0 0 0 0 0 0 0 0 0 0 0 0 0 0 0 0 0 0 0 0 0 0 0 0 0 0 0 0 0 0 0 0 0 0 0 0 0
0 0 0 0 0 0 0 0 0 0 0 0 0 0 0 0 0 0 0 0 0 0 0 0 0 0 0 0 0 0 0 0 0 0 0 0 0 0 0 0 0 0 0 0
0 0 0 0 0 0 0 0 0 -0 0 0 0 0 0 0 0 0 0 0 0 0 0 0 0 0 0 0 0 0 0 0 0 0 0 0 0 0 0 0 0 0 0 0
0 0 0 0 0 0 0 0 0 0 0 0 0 0 0 0 0 0 0 0 0 0 0 0 0 0 0 0 0 0 0 0 0 0 0 0 0 0 0 0 0 0 0 0
0 0 0 0 0 0 0 0 0 0 0 0 0 0 0 0 0 0 0 0 0 0 0 0 0 0 0 0 0 0 0 0 0 0 0 0 0 0 0 0 0 0 0 0
0 0 0 0 -0 -0 -0 -0 -0 -0 0 0 0 0 0 0 0 0 0 0 0 0 0 0 0 0 0 0 0 0 0 0 0 0 0 0 0 0 0 0 0 0 0 0
0 0 0 0 -0 0 0 0 0 0 0 0 0 0 0 0 0 0 0 0 0 0 0 0 0 0 0 0 0 0 0 0 0 0 0 0 0 0 0 0 0 0 0 0
0 0 0 0 0 0 0 0 0 0 0 0 0 0 0 0 0 0 0 0 0 0 0 0 0 0 0 0 0 0 0 0 0 0 0 0 0 0 0 0 0 0 0 0
Wind_Speed_500mb
4 12 19 31 19 2 8 6 10 9 4 7 23 39 38 44 47 51 54 57 56 62 61 55 58 64 69 75 79 79 78 75 74 74 73 72 71 69 71 73 76 72 69 68
8 21 25 10 13 9 9 15 24 18 4 11 24 42 42 46 57 57 57 59 61 62 62 68 67 68 73 77 80 83 82 80 77 76 75 73 69 68 67 67 75 75 72 73
26 8 19 13 14 17 17 23 19 18 5 13 21 29 29 21 38 50 62 69 68 72 69 61 68 77 75 79 84 85 85 83 80 78 76 75 70 66 68 68 75 78 75 71
19 10 12 18 20 23 25 25 17 12 10 14 4 20 36 36 34 26 46 58 64 66 65 63 59 75 72 76 74 84 87 85 84 81 82 80 77 76 75 74 71 73 78 81
11 20 22 20 16 29 6 10 14 5 10 11 21 13 20 4 22 30 45 53 54 56 53 54 53 52 51 67 74 76 84 88 88 87 84 81 78 75 75 73 65 68 63 72
4 1 9 3 7 14 25 15 10 5 2 16 23 19 21 23 15 10 15 23 29 29 26 27 32 39 44 54 64 72 81 86 89 91 88 86 81 82 79 76 78 80 78 78
10 14 5 7 13 7 9 18 7 9 10 20 6 15 30 13 20 15 27 49 22 28 25 21 19 21 28 36 45 57 68 77 86 91 91 89 84 84 78 77 80 78 84 83
24 22 27 22 27 18 25 19 13 15 13 19 5 21 16 19 22 39 44 57 49 49 39 31 30 26 26 29 34 39 52 64 77 86 90 88 82 82 76 75 76 73 81 82
14 17 2 5 10 25 15 21 20 12 3 8 18 39 37 25 32 34 47 50 52 44 38 29 23 22 23 27 32 37 42 50 63 73 80 87 86 82 77 74 77 72 76 82
13 18 5 2 4 3 17 16 10 9 12 20 24 27 29 11 15 20 22 24 28 35 37 26 22 22 20 20 24 31 35 42 51 59 71 80 84 79 77 73 80 80 80 77
18 10 5 8 20 27 13 21 7 6 10 12 16 23 16 24 22 20 16 22 18 18 25 38 26 20 18 19 22 23 27 35 45 50 61 73 79 79 76 74 76 82 78 79
10 2 19 36 6 5 12 30 43 16 14 10 10 29 6 8 2 4 18 12 11 5 9 27 29 20 15 14 15 19 24 29 37 41 51 62 70 74 73 73 76 77 80 79
15 4 8 10 5 4 15 23 17 37 4 22 24 29 2 10 14 11 9 11 12 10 12 20 31 27 20 21 24 29 29 31 36 42 48 56 67 75 76 72 77 79 80 81
12 18 20 26 11 7 13 30 35 36 21 45 38 59 44 14 11 14 21 22 21 18 27 27 33 34 36 40 42 38 36 41 43 46 51 59 69 75 77 70 76 80 81 81
7 12 21 44 47 34 29 23 41 44 57 44 59 50 68 37 37 48 63 80 60 67 73 68 64 66 65 60 51 41 49 52 53 54 55 62 68 71 75 70 77 78 80 77
24 24 30 44 49 48 37 32 36 49 52 41 57 59 70 69 70 52 55 57 59 67 77 84 92 88 75 58 58 59 56 58 67 64 63 63 70 74 78 73 75 76 74 75
5 1 5 38 41 31 29 54 60 49 45 48 47 67 55 49 40 53 58 57 66 74 80 84 85 86 87 88 85 80 73 73 75 72 71 70 72 76 80 75 74 80 77 74
18 16 7 16 19 27 10 33 46 52 54 51 48 55 58 59 59 59 66 64 69 70 76 85 89 90 87 78 72 73 76 75 76 73 72 73 75 76 79 76 75 82 78 76
39 23 15 15 23 23 35 17 15 25 47 50 55 62 81 93 52 76 86 66 76 78 74 67 62 57 54 52 50 54 57 62 69 72 71 70 72 76 78 79 77 80 77 75
30 36 25 20 25 21 25 12 10 10 28 40 40 49 56 49 20 34 45 38 36 35 37 42 44 46 40 43 56 58 54 55 58 58 59 62 66 69 72 73 74 77 76 75
3 13 34 35 27 12 14 8 15 17 11 13 14 34 31 14 30 43 29 33 40 46 47 48 50 55 55 51 46 46 47 46 42 42 44 46 49 53 58 63 68 69 70 70
13 8 6 15 16 16 26 2 10 19 33 50 54 32 25 32 33 36 37 34 34 40 44 44 38 33 32 32 31 29 32 31 31 30 30 31 33 38 44 50 52 54 56 55
22 18 10 9 12 25 25 43 52 29 23 24 34 54 36 42 48 43 37 32 30 32 34 33 30 28 26 23 21 18 20 18 19 21 23 24 26 27 31 35 39 42 43 41
19 27 18 26 36 25 25 15 14 12 17 28 34 50 47 44 45 43 42 31 24 27 29 26 24 20 16 15 14 13 13 15 17 18 20 23 23 25 26 26 27 32 34 39
17 7 12 19 21 22 18 11 24 27 29 38 43 43 47 50 44 35 34 29 20 17 19 18 15 14 13 14 18 24 24 21 24 24 24 25 26 27 30 31 32 32 28 26
38 37 24 28 41 21 27 35 22 29 37 33 35 38 37 40 42 35 30 22 18 15 16 19 19 19 22 25 28 29 29 26 19 23 24 24 23 24 25 27 25 24 20 24
Wind_Direction_500mb
117 212 213 224 219 171 124 177 249 248 173 258 256 269 269 271 271 264 260 257 255 254 254 249 246 242 239 235 235 235 234 234 234 233 233 234 235 234 232 226 223 223 228 232
168 226 234 108 157 179 201 247 257 282 206 227 277 274 278 266 259 258 261 260 256 256 251 250 248 246 241 238 237 236 237 236 237 237 237 238 240 238 235 227 222 222 223 229
213 187 178 163 169 196 225 231 243 261 317 234 292 270 259 262 255 260 259 257 259 256 257 251 252 249 246 240 239 238 238 238 238 237 236 236 237 236 233 226 222 223 223 221
237 175 159 181 210 199 236 212 233 261 294 276 294 289 276 272 258 241 255 257 258 261 261 260 248 252 249 248 245 242 240 239 239 237 238 239 241 238 237 229 225 220 223 227
202 185 189 203 212 188 222 131 175 174 245 313 232 258 267 251 271 255 250 256 259 262 263 265 268 269 259 250 246 245 242 240 239 238 239 239 238 237 238 231 224 218 212 211
296 14 203 264 77 175 141 101 82 91 221 262 255 233 264 252 245 272 263 266 276 273 275 267 258 251 248 246 242 238 238 238 238 239 237 238 238 238 235 228 220 219 220 219
179 215 184 170 110 92 211 165 204 224 196 250 73 245 250 276 258 238 271 286 285 282 267 256 260 258 254 251 246 239 238 238 238 239 237 238 236 238 237 233 225 220 217 219
213 233 189 182 216 179 198 202 209 225 217 260 117 241 258 230 263 267 267 271 272 272 264 259 267 254 254 250 249 242 238 237 238 238 235 235 234 236 235 233 227 225 226 224
197 243 237 240 200 180 176 213 245 269 122 293 250 262 269 236 259 245 257 263 271 275 273 263 246 237 233 238 244 246 245 242 241 242 237 235 235 236 234 232 224 226 227 227
216 260 157 99 166 241 218 145 182 208 227 238 253 262 256 280 276 252 256 266 284 287 257 241 231 223 224 238 251 256 260 258 251 247 240 236 236 236 233 228 222 226 227 230
215 242 145 152 208 196 188 214 220 246 222 238 258 254 248 251 250 263 289 296 302 295 239 223 209 206 225 249 258 261 265 265 264 254 244 239 236 234 233 228 223 226 225 230
202 350 250 234 157 260 247 233 208 213 208 240 280 264 173 226 195 335 303 285 299 297 187 194 192 202 219 248 271 267 267 275 278 266 250 242 237 234 234 230 223 224 227 230
169 182 247 252 201 176 223 217 234 233 18 225 226 255 269 238 275 252 295 282 284 303 288 231 209 217 237 254 280 260 259 264 270 266 254 241 234 231 233 232 225 225 228 227
285 183 214 235 255 125 200 216 211 212 226 240 236 254 247 215 255 255 288 305 285 295 294 281 254 251 265 282 283 268 273 263 261 261 254 244 235 231 232 235 229 229 230 231
247 240 233 251 257 255 249 237 211 215 228 231 252 247 263 258 262 267 275 282 289 286 284 284 278 276 279 277 280 285 279 265 260 257 255 249 240 233 232 237 230 230 232 236
249 254 249 263 250 241 242 239 227 217 231 240 250 263 261 269 265 260 255 255 264 273 276 278 282 288 290 290 296 294 277 278 263 258 256 250 242 234 231 236 230 229 233 237
278 278 248 250 271 263 238 230 236 239 233 233 239 246 258 261 258 261 266 263 260 265 271 277 280 284 286 288 290 283 278 272 264 257 254 250 245 238 232 235 228 228 231 236
244 242 251 267 283 260 274 260 242 244 245 245 250 260 264 266 273 271 261 263 266 267 274 280 283 284 285 285 278 275 271 267 264 258 253 249 246 240 235 236 231 231 231 236
209 225 254 252 257 286 287 267 208 221 248 239 240 250 258 265 271 269 265 266 268 277 282 283 285 286 286 285 282 278 271 265 261 261 257 251 246 241 237 236 234 233 234 236
236 227 225 236 245 255 283 326 284 283 258 267 239 242 251 263 249 265 288 287 279 277 283 284 284 284 280 280 284 278 273 265 262 260 256 252 247 243 239 237 235 236 237 236
208 224 226 233 245 254 255 168 151 190 265 350 4 276 268 235 242 274 285 287 292 292 287 281 281 282 282 280 275 271 268 265 262 254 250 248 246 243 240 235 232 234 235 235
219 281 234 218 221 225 18 332 241 343 324 309 291 280 330 317 291 283 288 295 291 288 289 291 289 286 284 281 271 264 260 254 247 240 234 233 231 232 232 233 230 230 234 235
249 224 248 193 280 271 258 247 284 289 298 309 319 317 324 312 300 299 292 289 286 281 280 283 283 279 274 265 256 248 245 237 228 218 209 207 206 207 211 218 218 222 223 221
240 255 260 275 264 260 244 296 352 336 338 338 334 305 314 301 296 294 288 282 271 270 275 271 266 261 247 233 228 212 196 185 177 178 177 176 180 182 183 188 200 211 208 210
250 164 231 259 275 273 233 269 298 289 299 309 310 301 298 295 294 285 273 278 279 263 255 250 241 225 199 170 158 146 143 143 146 149 152 153 157 163 165 179 192 199 211 221
240 243 246 255 274 254 282 287 267 294 301 304 298 294 285 279 277 271 267 263 252 242 226 212 194 177 155 144 143 142 138 136 142 139 140 145 152 165 173 179 184 191 202 215
Wind_Speed_850mb
4 12 19 31 19 2 8 6 10 9 4 7 23 39 38 44 47 51 54 57 56 62 61 55 58 64 69 75 79 79 78 75 74 74 73 72 71 69 71 73 76 72 69 68
8 21 25 10 13 9 9 15 24 18 4 11 24 42 42 46 57 57 57 59 61 62 62 68 67 68 73 77 80 83 82 80 77 76 75 73 69 68 67 67 75 75 72 73
26 8 19 13 14 17 17 23 19 18 5 13 21 29 29 21 38 50 62 69 68 72 69 61 68 77 75 79 84 85 85 83 80 78 76 75 70 66 68 68 75 78 75 71
19 10 12 18 20 23 25 25 17 12 10 14 4 20 36 36 34 26 46 58 64 66 65 63 59 75 72 76 74 84 87 85 84 81 82 80 77 76 75 74 71 73 78 81
11 20 22 20 16 29 6 10 14 5 10 11 21 13 20 4 22 30 45 53 54 56 53 54 53 52 51 67 74 76 84 88 88 87 84 81 78 75 75 73 65 68 63 72
4 1 9 3 7 14 25 15 10 5 2 16 23 19 21 23 15 10 15 23 29 29 26 27 32 39 44 54 64 72 81 86 89 91 88 86 81 82 79 76 78 80 78 78
10 14 5 7 13 7 9 18 7 9 10 20 6 15 30 13 20 15 27 49 22 28 25 21 19 21 28 36 45 57 68 77 86 91 91 89 84 84 78 77 80 78 84 83
24 22 27 22 27 18 25 19 13 15 13 19 5 21 16 19 22 39 44 57 49 49 39 31 30 26 26 29 34 39 52 64 77 86 90 88 82 82 76 75 76 73 81 82
14 17 2 5 10 25 15 21 20 12 3 8 18 39 37 25 32 34 47 50 52 44 38 29 23 22 23 27 32 37 42 50 63 73 80 87 86 82 77 74 77 72 76 82
13 18 5 2 4 3 17 16 10 9 12 20 24 27 29 11 15 20 22 24 28 35 37 26 22 22 20 20 24 31 35 42 51 59 71 80 84 79 77 73 80 80 80 77
18 10 5 8 20 27 13 21 7 6 10 12 16 23 16 24 22 20 16 22 18 18 25 38 26 20 18 19 22 23 27 35 45 50 61 73 79 79 76 74 76 82 78 79
10 2 19 36 6 5 12 30 43 16 14 10 10 29 6 8 2 4 18 12 11 5 9 27 29 20 15 14 15 19 24 29 37 41 51 62 70 74 73 73 76 77 80 79
15 4 8 10 5 4 15 23 17 37 4 22 24 29 2 10 14 11 9 11 12 10 12 20 31 27 20 21 24 29 29 31 36 42 48 56 67 75 76 72 77 79 80 81
12 18 20 26 11 7 13 30 35 36 21 45 38 59 44 14 11 14 21 22 21 18 27 27 33 34 36 40 42 38 36 41 43 46 51 59 69 75 77 70 76 80 81 81
7 12 21 44 47 34 29 23 41 44 57 44 59 50 68 37 37 48 63 80 60 67 73 68 64 66 65 60 51 41 49 52 53 54 55 62 68 71 75 70 77 78 80 77
24 24 30 44 49 48 37 32 36 49 52 41 57 59 70 69 70 52 55 57 59 67 77 84 92 88 75 58 58 59 56 58 67 64 63 63 70 74 78 73 75 76 74 75
5 1 5 38 41 31 29 54 60 49 45 48 47 67 55 49 40 53 58 57 66 74 80 84 85 86 87 88 85 80 73 73 75 72 71 70 72 76 80 75 74 80 77 74
18 16 7 16 19 27 10 33 46 52 54 51 48 55 58 59 59 59 66 64 69 70 76 85 89 90 87 78 72 73 76 75 76 73 72 73 75 76 79 76 75 82 78 76
39 23 15 15 23 23 35 17 15 25 47 50 55 62 81 93 52 76 86 66 76 78 74 67 62 57 54 52 50 54 57 62 69 72 71 70 72 76 78 79 77 80 77 75
30 36 25 20 25 21 25 12 10 10 28 40 40 49 56 49 20 34 45 38 36 35 37 42 44 46 40 43 56 58 54 55 58 58 59 62 66 69 72 73 74 77 76 75
3 13 34 35 27 12 14 8 15 17 11 13 14 34 31 14 30 43 29 33 40 46 47 48 50 55 55 51 46 46 47 46 42 42 44 46 49 53 58 63 68 69 70 70
13 8 6 15 16 16 26 2 10 19 33 50 54 32 25 32 33 36 37 34 34 40 44 44 38 33 32 32 31 29 32 31 31 30 30 31 33 38 44 50 52 54 56 55
22 18 10 9 12 25 25 43 52 29 23 24 34 54 36 42 48 43 37 32 30 32 34 33 30 28 26 23 21 18 20 18 19 21 23 24 26 27 31 35 39 42 43 41
19 27 18 26 36 25 25 15 14 12 17 28 34 50 47 44 45 43 42 31 24 27 29 26 24 20 16 15 14 13 13 15 17 18 20 23 23 25 26 26 27 32 34 39
17 7 12 19 21 22 18 11 24 27 29 38 43 43 47 50 44 35 34 29 20 17 19 18 15 14 13 14 18 24 24 21 24 24 24 25 26 27 30 31 32 32 28 26
38 37 24 28 41 21 27 35 22 29 37 33 35 38 37 40 42 35 30 22 18 15 16 19 19 19 22 25 28 29 29 26 19 23 24 24 23 24 25 27 25 24 20 24
Wind_Direction_850mb
117 212 213 224 219 171 124 177 249 248 173 258 256 269 269 271 271 264 260 257 255 254 254 249 246 242 239 235 235 235 234 234 234 233 233 234 235 234 232 226 223 223 228 232
168 226 234 108 157 179 201 247 257 282 206 227 277 274 278 266 259 258 261 260 256 256 251 250 248 246 241 238 237 236 237 236 237 237 237 238 240 238 235 227 222 222 223 229
213 187 178 163 169 196 225 231 243 261 317 234 292 270 259 262 255 260 259 257 259 256 257 251 252 249 246 240 239 238 238 238 238 237 236 236 237 236 233 226 222 223 223 221
237 175 159 181 210 199 236 212 233 261 294 276 294 289 276 272 258 241 255 257 258 261 261 260 248 252 249 248 245 242 240 239 239 237 238 239 241 238 237 229 225 220 223 227
202 185 189 203 212 188 222 131 175 174 245 313 232 258 267 251 271 255 250 256 259 262 263 265 268 269 259 250 246 245 242 240 239 238 239 239 238 237 238 231 224 218 212 211
296 14 203 264 77 175 141 101 82 91 221 262 255 233 264 252 245 272 263 266 276 273 275 267 258 251 248 246 242 238 238 238 238 239 237 238 238 238 235 228 220 219 220 219
179 215 184 170 110 92 211 165 204 224 196 250 73 245 250 276 258 238 271 286 285 282 267 256 260 258 254 251 246 239 238 238 238 239 237 238 236 238 237 233 225 220 217 219
213 233 189 182 216 179 198 202 209 225 217 260 117 241 258 230 263 267 267 271 272 272 264 259 267 254 254 250 249 242 238 237 238 238 235 235 234 236 235 233 227 225 226 224
197 243 237 240 200 180 176 213 245 269 122 293 250 262 269 236 259 245 257 263 271 275 273 263 246 237 233 238 244 246 245 242 241 242 237 235 235 236 234 232 224 226 227 227
216 260 157 99 166 241 218 145 182 208 227 238 253 262 256 280 276 252 256 266 284 287 257 241 231 223 224 238 251 256 260 258 251 247 240 236 236 236 233 228 222 226 227 230
215 242 145 152 208 196 188 214 220 246 222 238 258 254 248 251 250 263 289 296 302 295 239 223 209 206 225 249 258 261 265 265 264 254 244 239 236 234 233 228 223 226 225 230
202 350 250 234 157 260 247 233 208 213 208 240 280 264 173 226 195 335 303 285 299 297 187 194 192 202 219 248 271 267 267 275 278 266 250 242 237 234 234 230 223 224 227 230
169 182 247 252 201 176 223 217 234 233 18 225 226 255 269 238 275 252 295 282 284 303 288 231 209 217 237 254 280 260 259 264 270 266 254 241 234 231 233 232 225 225 228 227
285 183 214 235 255 125 200 216 211 212 226 240 236 254 247 215 255 255 288 305 285 295 294 281 254 251 265 282 283 268 273 263 261 261 254 244 235 231 232 235 229 229 230 231
247 240 233 251 257 255 249 237 211 215 228 231 252 247 263 258 262 267 275 282 289 286 284 284 278 276 279 277 280 285 279 265 260 257 255 249 240 233 232 237 230 230 232 236
249 254 249 263 250 241 242 239 227 217 231 240 250 263 261 269 265 260 255 255 264 273 276 278 282 288 290 290 296 294 277 278 263 258 256 250 242 234 231 236 230 229 233 237
278 278 248 250 271 263 238 230 236 239 233 233 239 246 258 261 258 261 266 263 260 265 271 277 280 284 286 288 290 283 278 272 264 257 254 250 245 238 232 235 228 228 231 236
244 242 251 267 283 260 274 260 242 244 245 245 250 260 264 266 273 271 261 263 266 267 274 280 283 284 285 285 278 275 271 267 264 258 253 249 246 240 235 236 231 231 231 236
209 225 254 252 257 286 287 267 208 221 248 239 240 250 258 265 271 269 265 266 268 277 282 283 285 286 286 285 282 278 271 265 261 261 257 251 246 241 237 236 234 233 234 236
236 227 225 236 245 255 283 326 284 283 258 267 239 242 251 263 249 265 288 287 279 277 283 284 284 284 280 280 284 278 273 265 262 260 256 252 247 243 239 237 235 236 237 236
208 224 226 233 245 254 255 168 151 190 265 350 4 276 268 235 242 274 285 287 292 292 287 281 281 282 282 280 275 271 268 265 262 254 250 248 246 243 240 235 232 234 235 235
219 281 234 218 221 225 18 332 241 343 324 309 291 280 330 317 291 283 288 295 291 288 289 291 289 286 284 281 271 264 260 254 247 240 234 233 231 232 232 233 230 230 234 235
249 224 248 193 280 271 258 247 284 289 298 309 319 317 324 312 300 299 292 289 286 281 280 283 283 279 274 265 256 248 245 237 228 218 209 207 206 207 211 218 218 222 223 221
240 255 260 275 264 260 244 296 352 336 338 338 334 305 314 301 296 294 288 282 271 270 275 271 266 261 247 233 228 212 196 185 177 178 177 176 180 182 183 188 200 211 208 210
250 164 231 259 275 273 233 269 298 289 299 309 310 301 298 295 294 285 273 278 279 263 255 250 241 225 199 170 158 146 143 143 146 149 152 153 157 163 165 179 192 199 211 221
240 243 246 255 274 254 282 287 267 294 301 304 298 294 285 279 277 271 267 263 252 242 226 212 194 177 155 144 143 142 138 136 142 139 140 145 152 165 173 179 184 191 202 215